Location: Aghk�ilisa
(40.0189°N, 45.0097°E)
Time: 01:57:19
(UTC+00:00)

Cosmos 1076 Rocket - Pass Details

Date: 21 October 2019
Orbit: 589 x 613 km, 82.5° (Epoch: 14 November)

Event Time Altitude Azimuth Distance (km) Brightness Sun altitude
Rises 15:42:04 0° 355° (N) 2,882 7.1 -17.9°
Reaches altitude 10° 15:44:19 10° 357° (N) 1,970 6.2 -18.3°
Maximum altitude 15:48:39 69° 81° (E) 652 3.4 -19.1°
Drops below altitude 10° 15:52:56 10° 165° (SSE) 1,942 5.9 -19.9°
Enters shadow 15:53:18 - 166° (SSE) 2,084 6.1 -20.0°
